MDT,Max TemperatureF,Mean TemperatureF,Min TemperatureF,Max Dew PointF,MeanDew PointF,Min DewpointF,Max Humidity, Mean Humidity, Min Humidity, Max Sea Level PressureIn, Mean Sea Level PressureIn, Min Sea Level PressureIn, Max VisibilityMiles, Mean VisibilityMiles, Min VisibilityMiles, Max Wind SpeedMPH, Mean Wind SpeedMPH, Max Gust SpeedMPH,PrecipitationIn, CloudCover, Events, WindDirDegrees
2012-9-1,101,84,66,56,44,36,68,41,14,29.94,29.79,29.69,10,9,2,35,12,62,0.12,1,Rain-Thunderstorm,187
2012-9-2,89,75,60,48,44,42,52,36,19,29.94,29.87,29.75,10,10,10,35,10,41,0.00,1,,346
2012-9-3,92,71,49,45,34,25,74,42,10,29.95,29.88,29.85,10,10,10,25,10,33,0.00,0,,350
2012-9-4,93,70,47,36,28,21,39,24,9,30.03,29.88,29.75,10,10,10,30,14,36,0.00,0,,334
2012-9-5,79,63,46,37,33,30,60,39,18,30.11,30.00,29.89,10,10,10,18,9,24,0.00,0,,42
2012-9-6,82,64,46,49,36,32,72,45,17,30.11,29.94,29.83,10,10,9,30,12,36,0.02,2,Rain,356
2012-9-7,75,62,48,51,39,32,77,50,22,30.26,30.20,30.09,10,10,10,24,11,43,T,2,Rain,342
2012-9-8,84,66,47,40,34,28,61,38,14,30.25,30.19,30.11,10,10,10,25,10,32,0.00,0,,333
2012-9-9,93,68,43,38,32,29,65,38,10,30.20,29.99,29.74,10,10,10,29,12,36,0.00,0,,162
2012-9-10,100,76,52,43,33,26,33,21,9,29.76,29.66,29.60,10,10,10,30,8,41,0.00,0,Thunderstorm,225
2012-9-11,79,68,56,45,30,25,33,25,16,30.08,29.85,29.57,10,10,9,36,15,45,0.00,1,,352
2012-9-12,72,60,47,38,27,22,54,36,17,30.33,30.22,30.10,10,10,10,15,6,17,0.00,2,,356
2012-9-13,80,60,40,44,27,19,67,39,10,30.37,30.33,30.27,10,10,10,20,7,23,0.00,0,,329
2012-9-14,83,63,42,31,28,24,49,31,12,30.38,30.25,30.08,10,10,10,21,9,26,0.00,0,,178
2012-9-15,91,69,46,33,24,16,53,30,7,30.11,29.98,29.93,10,10,9,15,6,17,0.00,0,,65
2012-9-16,75,62,48,41,34,22,71,48,24,30.20,30.02,29.93,10,10,10,25,14,32,0.00,0,,1
2012-9-17,67,53,39,40,33,26,76,52,28,30.19,30.15,30.10,10,10,10,20,7,24,0.00,5,,3
2012-9-18,84,62,40,33,29,27,59,37,14,30.09,29.94,29.83,10,10,10,25,9,32,0.00,2,,327
2012-9-19,74,60,46,34,27,23,45,30,15,30.10,30.00,29.79,10,10,10,36,17,45,0.00,0,,343
2012-9-20,78,61,43,32,29,27,53,35,16,30.10,30.02,29.95,10,10,10,29,10,37,0.00,0,,333
2012-9-21,79,61,43,35,32,27,54,37,19,30.17,30.04,29.97,10,10,10,36,16,44,0.00,0,,330
2012-9-22,69,52,35,30,27,25,64,44,24,30.30,30.24,30.18,10,10,10,13,5,26,0.00,0,,93
2012-9-23,70,51,32,30,27,23,64,44,23,30.22,30.17,30.10,10,10,10,12,4,15,0.00,0,,88
2012-9-24,78,60,41,33,29,25,57,38,18,30.08,29.96,29.88,10,10,10,12,5,14,0.00,0,,356
2012-9-25,80,63,45,31,29,27,50,33,16,29.99,29.92,29.87,10,10,5,13,6,20,0.00,0,,304
2012-9-26,82,62,42,35,31,29,53,35,16,30.08,30.03,29.97,10,10,10,21,7,29,0.00,0,,165
2012-9-27,80,62,44,45,36,31,65,42,19,30.13,30.09,30.05,10,10,10,20,6,25,0.00,0,,177
2012-9-28,78,60,41,48,41,37,82,54,26,30.17,30.09,30.01,10,10,10,22,8,29,0.00,0,,156
2012-9-29,86,69,52,49,43,37,71,45,19,30.02,29.95,29.86,10,10,10,23,12,30,T,1,Thunderstorm,136
2012-9-30,81,66,51,48,40,35,83,52,20,30.11,29.99,29.91,10,10,10,25,12,31,T,2,,343